sat.trackr.live / text

‹ back to catalog

STARLINK-32011

NORAD 60030 · 2024-111Q

PAYLOAD ACTIVE UNKNOWN

§ Identity

Operator
Country
US
Launch date
2024-06-08
Launch site
AFETR
Launch vehicle
Mass (kg)
RCS (m²)

Purposes: comms

External: N2YO · Heavens-Above · Gunter

§ Orbital elements

Epoch: 2026-05-25T04:41:53.410848Z

Period
93.85 min
Inclination
53.1607°
Eccentricity
0.0001233
Mean motion
15.34392108 rev/d
Perigee alt
461.9 km
Apogee alt
463.6 km
Semi-major
6,840.9 km
B*
3.2257e-5
RAAN
79.0817°
Arg perigee
92.7760°
Mean anomaly
267.3383°
Rev number
11,076

§ Raw data

STARLINK-320111 60030U 24111Q   26145.19575707  .00000713  00000+0  32257-4 0  99902 60030  53.1607  79.0817 0001233  92.7760 267.3383 15.34392108110768

JSON: /api/v1/satellites/60030 · /tle

For live sub-satellite position, see the globe view (requires WebGL).

§ Visibility from observer

Set your observer location to see the next 7 days of passes ≥ 10°. The values pass through the URL so the page stays shareable.

No JS? Fill the form by hand. The geolocation button needs JavaScript.